TimeCDT,TemperatureF,Dew PointF,Humidity,Sea Level PressureIn,VisibilityMPH,Wind Direction,Wind SpeedMPH,Gust SpeedMPH,PrecipitationIn,Events,Conditions,WindDirDegrees,DateUTC
12:53 AM,68.0,48.9,50,29.91,10.0,SW,10.4,-,N/A,,Clear,220,2013-05-15 05:53:00
1:53 AM,66.0,48.9,54,29.91,10.0,SSW,10.4,-,N/A,,Clear,210,2013-05-15 06:53:00
2:53 AM,66.0,51.1,59,29.90,10.0,SSW,11.5,-,N/A,,Clear,210,2013-05-15 07:53:00
3:53 AM,63.0,52.0,67,29.91,10.0,SW,9.2,-,N/A,,Clear,220,2013-05-15 08:53:00
4:53 AM,63.0,52.0,67,29.92,10.0,SW,9.2,-,N/A,,Clear,220,2013-05-15 09:53:00
5:53 AM,62.1,52.0,70,29.93,10.0,SSW,9.2,-,N/A,,Clear,200,2013-05-15 10:53:00
6:53 AM,63.0,53.1,70,29.94,10.0,SSW,10.4,-,N/A,,Clear,200,2013-05-15 11:53:00
7:53 AM,66.9,53.1,61,29.94,10.0,SSW,11.5,-,N/A,,Clear,210,2013-05-15 12:53:00
8:53 AM,70.0,55.9,61,29.94,10.0,SW,17.3,-,N/A,,Clear,220,2013-05-15 13:53:00
9:53 AM,73.9,59.0,59,29.94,10.0,SW,13.8,19.6,N/A,,Clear,230,2013-05-15 14:53:00
10:53 AM,77.0,62.1,60,29.93,10.0,WSW,11.5,-,N/A,,Clear,240,2013-05-15 15:53:00
11:53 AM,79.0,63.0,58,29.92,10.0,SW,11.5,-,N/A,,Clear,220,2013-05-15 16:53:00
12:53 PM,81.0,63.0,54,29.89,10.0,SSW,4.6,-,N/A,,Clear,210,2013-05-15 17:53:00
1:53 PM,84.0,64.0,51,29.88,10.0,Variable,4.6,-,N/A,,Clear,0,2013-05-15 18:53:00
2:53 PM,82.9,63.0,51,29.86,10.0,SSW,9.2,-,N/A,,Clear,210,2013-05-15 19:53:00
3:53 PM,84.0,64.9,53,29.84,10.0,SW,10.4,-,N/A,,Clear,230,2013-05-15 20:53:00
4:53 PM,81.0,64.9,58,29.84,10.0,SSW,10.4,-,N/A,,Mostly Cloudy,200,2013-05-15 21:53:00
5:53 PM,79.0,64.0,60,29.83,10.0,SSW,9.2,-,N/A,,Scattered Clouds,210,2013-05-15 22:53:00
6:53 PM,78.1,64.0,62,29.84,10.0,SSW,9.2,-,N/A,,Partly Cloudy,210,2013-05-15 23:53:00
7:53 PM,75.0,64.0,69,29.86,10.0,SSW,8.1,-,N/A,,Mostly Cloudy,200,2013-05-16 00:53:00
8:53 PM,73.9,64.0,71,29.86,10.0,SW,8.1,-,N/A,,Clear,230,2013-05-16 01:53:00
9:53 PM,72.0,63.0,73,29.87,10.0,SW,12.7,-,N/A,,Partly Cloudy,230,2013-05-16 02:53:00
10:08 PM,71.6,62.6,73,29.90,10.0,SW,16.1,21.9,N/A,,Mostly Cloudy,220,2013-05-16 03:08:00
10:32 PM,69.8,60.8,73,29.90,10.0,SW,9.2,-,N/A,,Scattered Clouds,220,2013-05-16 03:32:00
10:53 PM,69.1,61.0,75,29.87,10.0,SW,9.2,-,N/A,,Clear,230,2013-05-16 03:53:00
11:53 PM,69.1,60.1,73,29.86,10.0,Variable,3.5,-,N/A,,Clear,0,2013-05-16 04:53:00